Tracking 19477 objects as of 16-Jan-2019
HD Live streaming from Space Station
objects crossing your sky now

COSMOS 2282

Track COSMOS 2282 now!
COSMOS 2282 is classified as:


NORAD ID: 23168
Int'l Code: 1994-038A
Perigee: 35,728.6 km
Apogee: 35,799.0 km
Inclination: 14.1 °
Period: 1,434.6 minutes
Semi major axis: 42134 km
RCS: 2.417 m2 (large)
Launch date: July 6, 1994
Source: Commonwealth of Independent States (former USSR) (CIS)
Launch site: TYURATAM MISSILE AND SPACE COMPLEX (TTMTR)
aabbcc
Your satellite tracking list
Your tracking list is empty




NASA's NSSDC Master Catalog

Two Line Element Set (TLE):
1 23168U 94038A   19015.58922081 -.00000002 +00000-0 +00000-0 0  9998
2 23168 014.1173 014.1020 0008354 013.1127 175.5305 01.00378559089867
Source of the keplerian elements: AFSPC